Date String (YYYY-MM-DD hh:mm:ss) UTC,Instrument flags,absolute air pressure of the measurement (hPa),sample flow rate (lpm),inlet stack bypass flow (lpm),air temperature of the measurement (°C),ambient temperature measured by the external sensor (°C),aerosol sample conditioner tube jacket temperature (°C),OPC LED temperature (°C),internal box temperature (°C),relative humidity of the measurement (%),span deviation,mass concentration of particles derived from Lorenz-Mie calculation of OPC scattering (μg/m³),mass concentration of particles derived from Lorenz-Mie calculation of OPC scattering (μg/m³),mass concentration of particles derived from Lorenz-Mie calculation of OPC scattering (μg/m³)
DateTimeUTC,F1_M11,P_M11,Q1_M11,Q2_M11,T1_M11,T2_M11,T3_M11,T4_M11,T5_M11,U1_M11,ZSPAN_M11,X2_M11,X0_M11,X1_M11
2023-11-19 08:00:00,SystemResetWarning,0823.6,5.00,000.00,024.7,023.7,000.0,033.1,026.1,16.9,0000.0,0001.09,0001.41,0000.98
2023-11-19 08:01:00,SystemResetWarning,0823.6,5.00,000.00,024.7,023.6,000.0,033.1,026.1,17.0,0000.0,0001.04,0001.36,0000.93
2023-11-19 08:02:00,SystemResetWarning,0823.6,5.00,000.00,024.7,023.6,000.0,033.1,026.1,17.0,0000.0,0001.03,0001.36,0000.90
2023-11-19 08:03:00,SystemResetWarning,0823.6,4.99,000.00,024.7,023.6,000.0,033.1,026.0,17.0,0000.0,0000.98,0001.29,0000.85
2023-11-19 08:04:00,SystemResetWarning,0823.6,5.00,000.00,024.7,023.6,000.0,033.1,026.0,17.1,0000.0,0000.94,0001.26,0000.80
2023-11-19 08:05:00,SystemResetWarning,0823.6,5.00,000.00,024.7,023.5,000.0,033.1,026.0,17.2,0000.0,0000.88,0001.19,0000.75
2023-11-19 08:06:00,SystemResetWarning,0823.6,5.00,000.00,024.7,023.5,000.0,033.1,026.0,17.3,0000.0,0000.81,0001.07,0000.69
2023-11-19 08:07:00,SystemResetWarning,0823.6,5.00,000.00,024.7,023.5,000.0,033.1,026.0,17.3,0000.0,0000.74,0000.96,0000.64
2023-11-19 08:08:00,SystemResetWarning,0823.5,5.00,000.00,024.7,023.5,000.0,033.1,026.0,17.3,0000.0,0000.69,0000.91,0000.59
2023-11-19 08:09:00,SystemResetWarning,0823.5,5.00,000.00,024.7,023.5,000.0,033.1,026.0,17.2,0000.0,0000.66,0000.95,0000.56
2023-11-19 08:10:00,SystemResetWarning,0823.6,5.00,000.00,024.7,023.5,000.0,033.1,026.0,17.2,0000.0,0000.64,0000.94,0000.52
2023-11-19 08:11:00,SystemResetWarning,0823.5,5.00,000.00,024.6,023.4,000.0,033.1,026.0,17.4,0000.0,0000.62,0000.92,0000.50
2023-11-19 08:12:00,SystemResetWarning,0823.5,5.00,000.00,024.6,023.5,000.0,033.0,026.0,17.3,0000.0,0000.61,0000.90,0000.50
2023-11-19 08:13:00,SystemResetWarning,0823.5,5.01,000.00,024.6,023.5,000.0,033.0,026.0,17.1,0000.0,0000.59,0000.89,0000.49
2023-11-19 08:14:00,SystemResetWarning,0823.5,5.01,000.00,024.6,023.5,000.0,033.0,026.0,17.2,0000.0,0000.60,0000.91,0000.48
2023-11-19 08:15:00,SystemResetWarning,0823.5,5.00,000.00,024.6,023.5,000.0,033.0,026.0,17.2,0000.0,0000.59,0000.88,0000.48
2023-11-19 08:16:00,SystemResetWarning,0823.4,5.00,000.00,024.6,023.5,000.0,033.0,026.0,17.1,0000.0,0000.60,0000.92,0000.48
2023-11-19 08:17:00,SystemResetWarning,0823.4,5.00,000.00,024.6,023.5,000.0,033.0,026.0,17.1,0000.0,0000.60,0000.92,0000.48
2023-11-19 08:18:00,SystemResetWarning,0823.4,5.00,000.00,024.6,023.5,000.0,033.0,026.0,17.0,0000.0,0000.59,0000.89,0000.48
2023-11-19 08:19:00,SystemResetWarning,0823.4,5.00,000.00,024.6,023.5,000.0,033.0,026.0,17.0,0000.0,0000.58,0000.86,0000.48
2023-11-19 08:20:00,SystemResetWarning,0823.4,5.00,000.00,024.6,023.5,000.0,033.0,026.0,17.0,0000.0,0000.57,0000.80,0000.48
2023-11-19 08:21:00,SystemResetWarning,0823.4,4.99,000.00,024.6,023.5,000.0,033.0,026.0,17.1,0000.0,0000.58,0000.84,0000.47
2023-11-19 08:22:00,SystemResetWarning,0823.4,4.99,000.00,024.6,023.5,000.0,033.0,026.0,17.0,0000.0,0000.59,0000.88,0000.47
2023-11-19 08:23:00,SystemResetWarning,0823.3,4.99,000.00,024.6,023.5,000.0,033.0,026.0,17.0,0000.0,0000.58,0000.87,0000.46
2023-11-19 08:24:00,SystemResetWarning,0823.4,4.99,000.00,024.6,023.5,000.0,033.0,026.0,17.0,0000.0,0000.56,0000.82,0000.45
2023-11-19 08:25:00,SystemResetWarning,0823.3,5.00,000.00,024.6,023.5,000.0,033.0,026.0,17.0,0000.0,0000.55,0000.82,0000.45
2023-11-19 08:26:00,SystemResetWarning,0823.3,5.00,000.00,024.6,023.5,000.0,033.0,026.0,17.0,0000.0,0000.57,0000.87,0000.45
2023-11-19 08:27:00,SystemResetWarning,0823.3,5.00,000.00,024.6,023.5,000.0,033.0,026.0,17.0,0000.0,0000.58,0000.88,0000.46
2023-11-19 08:28:00,SystemResetWarning,0823.3,5.01,000.00,024.6,023.5,000.0,033.0,026.0,16.9,0000.0,0000.58,0000.90,0000.46
2023-11-19 08:29:00,SystemResetWarning,0823.3,5.00,000.00,024.6,023.5,000.0,033.0,026.0,16.8,0000.0,0000.59,0000.94,0000.45
2023-11-19 08:30:00,SystemResetWarning,0823.3,4.99,000.00,024.6,023.5,000.0,033.0,026.0,16.7,0000.0,0000.59,0000.94,0000.45
2023-11-19 08:31:00,SystemResetWarning,0823.3,5.00,000.00,024.6,023.5,000.0,033.0,026.0,16.7,0000.0,0000.58,0000.92,0000.45
2023-11-19 08:32:00,SystemResetWarning,0823.3,5.00,000.00,024.6,023.5,000.0,033.0,026.0,16.7,0000.0,0000.58,0000.88,0000.45
2023-11-19 08:33:00,SystemResetWarning,0823.3,4.99,000.00,024.6,023.5,000.0,033.0,026.0,16.6,0000.0,0000.58,0000.88,0000.46
2023-11-19 08:34:00,SystemResetWarning,0823.3,4.99,000.00,024.6,023.4,000.0,033.0,025.9,16.6,0000.0,0000.57,0000.86,0000.45
2023-11-19 08:35:00,SystemResetWarning,0823.3,5.00,000.00,024.6,023.5,000.0,033.0,025.9,16.6,0000.0,0000.57,0000.87,0000.46
2023-11-19 08:36:00,SystemResetWarning,0823.3,5.01,000.00,024.6,023.5,000.0,033.0,025.9,16.8,0000.0,0000.57,0000.84,0000.46
2023-11-19 08:37:00,SystemResetWarning,0823.3,5.01,000.00,024.6,023.4,000.0,033.0,025.9,16.9,0000.0,0000.55,0000.80,0000.46
2023-11-19 08:38:00,SystemResetWarning,0823.3,5.00,000.00,024.6,023.4,000.0,033.0,025.9,16.9,0000.0,0000.56,0000.97,0000.46
2023-11-19 08:39:00,SystemResetWarning,0823.3,4.99,000.00,024.6,023.4,000.0,033.0,025.9,16.9,0000.0,0000.56,0000.97,0000.47
2023-11-19 08:40:00,SystemResetWarning,0823.3,5.00,000.00,024.5,023.4,000.0,032.9,025.9,16.9,0000.0,0000.57,0000.96,0000.48
2023-11-19 08:41:00,SystemResetWarning,0823.3,5.00,000.00,024.5,023.4,000.0,032.9,025.9,17.0,0000.0,0000.59,0001.01,0000.49
2023-11-19 08:42:00,SystemResetWarning,0823.3,5.01,000.00,024.5,023.4,000.0,032.9,025.9,17.0,0000.0,0000.59,0001.00,0000.49
2023-11-19 08:43:00,SystemResetWarning,0823.3,5.00,000.00,024.5,023.3,000.0,032.9,025.9,17.0,0000.0,0000.58,0000.97,0000.50
2023-11-19 08:44:00,SystemResetWarning,0823.3,5.00,000.00,024.5,023.3,000.0,032.9,025.9,17.0,0000.0,0000.57,0000.93,0000.49
2023-11-19 08:45:00,SystemResetWarning,0823.3,5.00,000.00,024.5,023.3,000.0,032.9,025.9,17.0,0000.0,0000.57,0000.93,0000.49
2023-11-19 08:46:00,SystemResetWarning,0823.3,5.00,000.00,024.5,023.3,000.0,032.9,025.9,16.5,0000.0,0000.57,0000.91,0000.49
2023-11-19 08:47:00,SystemResetWarning,0823.2,5.00,000.00,024.5,023.3,000.0,032.9,025.8,16.4,0000.0,0000.56,0000.90,0000.48
2023-11-19 08:48:00,SystemResetWarning,0823.3,5.00,000.00,024.5,023.3,000.0,032.9,025.7,16.6,0000.0,0000.54,0000.88,0000.47
2023-11-19 08:49:00,SystemResetWarning,0823.3,5.00,000.00,024.5,023.3,000.0,032.9,025.7,16.6,0000.0,0000.52,0000.71,0000.46
2023-11-19 08:50:00,SystemResetWarning,0823.1,5.00,000.00,024.5,023.3,000.0,032.9,025.7,16.5,0000.0,0000.50,0000.64,0000.45
2023-11-19 08:51:00,SystemResetWarning,0823.1,5.00,000.00,024.5,023.2,000.0,032.9,025.8,16.0,0000.0,0000.48,0000.61,0000.44
2023-11-19 08:52:00,SystemResetWarning,0823.1,5.00,000.00,024.4,023.2,000.0,032.9,025.7,16.3,0000.0,0000.47,0000.56,0000.43
2023-11-19 08:53:00,SystemResetWarning,0823.2,5.00,000.00,024.4,023.2,000.0,032.9,025.7,16.4,0000.0,0000.47,0000.58,0000.43
2023-11-19 08:54:00,SystemResetWarning,0823.2,5.00,000.00,024.4,023.2,000.0,032.8,025.7,16.4,0000.0,0000.47,0000.60,0000.43
2023-11-19 08:55:00,SystemResetWarning,0823.1,5.00,000.00,024.4,023.2,000.0,032.8,025.7,16.3,0000.0,0000.48,0000.63,0000.43
2023-11-19 08:56:00,SystemResetWarning,0823.1,5.00,000.00,024.4,023.2,000.0,032.8,025.7,16.5,0000.0,0000.49,0000.64,0000.43
2023-11-19 08:57:00,SystemResetWarning,0823.1,5.00,000.00,024.4,023.2,000.0,032.8,025.7,16.5,0000.0,0000.49,0000.64,0000.44
2023-11-19 08:58:00,SystemResetWarning,0823.1,5.00,000.00,024.4,023.2,000.0,032.8,025.7,16.5,0000.0,0000.51,0000.69,0000.45
2023-11-19 08:59:00,SystemResetWarning,0823.1,5.00,000.00,024.4,023.1,000.0,032.8,025.7,16.5,0000.0,0000.55,0000.80,0000.46
